Location: ???? ??
(36.0534°N, 43.5630°E)
Time: 07:15:13
(UTC+00:00)

SPOT 3 Rocket - Pass Details

Date: 18 September 2019
Orbit: 780 x 794 km, 98.8° (Epoch: 22 October)

Event Time Altitude Azimuth Distance (km) Brightness Sun altitude
Exits shadow 16:50:32 34° 152° (SSE) 1,275 4.3 -20.9°
Maximum altitude 16:52:50 74° 75° (ENE) 813 3.4 -21.3°
Drops below altitude 10° 16:57:58 10° 351° (N) 2,339 6.4 -22.3°
Sets 17:00:17 0° 349° (N) 3,271 7.2 -22.8°
